Location: Helsinki
(60.1699°N, 24.9384°E)
Time: 17:41:58
(UTC+02:00)

S-56A Canister/Altair - Pass Details

Date: 29 October 2020
Orbit: 633 x 2500 km, 38.9° (Epoch: 29 November)

Event Time Altitude Azimuth Distance (km) Brightness Sun altitude
Rises 06:38:07 0° 208° (SSW) 3,541 10.8 -7.6°
Reaches altitude 10° 06:42:16 10° 179° (S) 2,938 10.7 -7.1°
Maximum altitude 06:45:02 12° 157° (SSE) 2,988 11.1 -6.8°
Drops below altitude 10° 06:48:09 10° 135° (SE) 3,443 12.0 -6.4°
Sets 06:54:06 0° 110° (ESE) 4,924 14.5 -5.7°
